THORAD AGENA D DEB

基本信息
目录编号:
42493
目录名称:
THORAD AGENA D DEB
国际标识:
1970-025QX
轨道中心:
EARTH
物体状态:
已陨落(2024-09-25)
发射日期:
1970-04-08 UTC
轨道信息
数据来源: 国际轨道数据
星历时间: 2024-06-27T01:01:45+0800
半长轴: 6953.442km
偏心率: 0.0007605
轨道倾角: 99.460°
近地点辐角: 349.596°
升交点赤经: 8.529°
平近点角: 131.255°
近地点: 570.018km
远地点: 580.596km
周期: 96.174分钟
每日圈数: 14.9728
详细信息
发射场:
AFWTR
轨道高度:
LEO
数据来源:
AOE Integration Group
参考系:
TEME
时间系统:
UTC
历元类型:
SGP4
2D轨道图
3D轨道图
轨道高度分析图
轨道倾角分析图
轨道综合分析图
查看轨道综合分析图